Time,TemperatureF,DewpointF,PressureIn,WindDirection,WindDirectionDegrees,WindSpeedMPH,WindSpeedGustMPH,Humidity,HourlyPrecipIn,Conditions,Clouds,dailyrainin,SolarRadiationWatts/m^2,SoftwareType,DateUTC
2013-07-08 00:34:00,99.0,49.0,-100.00,SW,234,1.0,13.0,19,0.00,,,0.00,0.000000,,2013-07-08 07:34:00,
2013-07-08 00:44:00,99.0,49.0,-100.00,SW,234,1.0,13.0,19,0.00,,,0.00,0.000000,,2013-07-08 07:44:00,
2013-07-08 00:53:00,99.0,49.0,-100.00,SW,234,1.0,13.0,19,0.00,,,0.00,0.000000,,2013-07-08 07:53:00,
2013-07-08 01:02:00,99.0,49.0,-100.00,SW,234,1.0,13.0,19,0.00,,,0.00,0.000000,,2013-07-08 08:02:00,
2013-07-08 01:53:00,95.0,50.0,-100.00,SSW,193,0.0,10.0,22,-99.99,,,0.00,0.000000,,2013-07-08 08:53:00,
2013-07-08 03:34:00,92.0,48.0,-100.00,WNW,287,2.0,5.0,22,0.00,,,0.00,0.000000,,2013-07-08 10:34:00,
2013-07-08 03:43:00,92.0,48.0,-100.00,WNW,287,2.0,5.0,22,0.00,,,0.00,0.000000,,2013-07-08 10:43:00,
2013-07-08 03:53:00,92.0,48.0,-100.00,WNW,287,2.0,5.0,22,0.00,,,0.00,0.000000,,2013-07-08 10:53:00,
2013-07-08 04:02:00,92.0,48.0,-100.00,WNW,287,2.0,5.0,22,0.00,,,0.00,0.000000,,2013-07-08 11:02:00,
2013-07-08 04:43:00,90.0,46.0,-100.00,SE,135,0.0,6.0,22,0.00,,,0.00,0.000000,,2013-07-08 11:43:00,
2013-07-08 05:01:00,90.0,46.0,-100.00,SE,135,0.0,6.0,22,0.00,,,0.00,0.000000,,2013-07-08 12:01:00,
2013-07-08 05:34:00,86.0,46.0,-100.00,NW,321,0.0,6.0,25,0.00,,,0.00,0.000000,,2013-07-08 12:34:00,
2013-07-08 05:43:00,86.0,46.0,-100.00,NW,321,0.0,6.0,25,0.00,,,0.00,0.000000,,2013-07-08 12:43:00,
2013-07-08 05:53:00,86.0,46.0,-100.00,NW,321,0.0,6.0,25,0.00,,,0.00,0.000000,,2013-07-08 12:53:00,
2013-07-08 06:01:00,86.0,46.0,-100.00,NW,321,0.0,6.0,25,0.00,,,0.00,0.000000,,2013-07-08 13:01:00,
2013-07-08 06:42:00,87.0,47.0,-100.00,SE,132,5.0,5.0,25,0.00,,,0.00,0.000000,,2013-07-08 13:42:00,
2013-07-08 07:01:00,87.0,47.0,-100.00,SE,132,5.0,5.0,25,0.00,,,0.00,0.000000,,2013-07-08 14:01:00,
2013-07-08 13:53:00,107.0,48.0,-100.00,SW,223,5.0,13.0,14,0.00,,,-99.99,1158.000000,,2013-07-08 20:53:00,
2013-07-08 20:58:00,105.0,73.0,-100.00,SSW,198,12.0,18.0,36,-99.99,,,0.00,233.000000,,2013-07-09 03:58:00,
2013-07-08 21:34:00,96.0,71.0,-100.00,South,191,8.0,19.0,44,-99.99,,,0.00,28.000000,,2013-07-09 04:34:00,
2013-07-08 21:43:00,96.0,71.0,-100.00,South,191,8.0,19.0,44,-99.99,,,0.00,28.000000,,2013-07-09 04:43:00,
2013-07-08 21:53:00,96.0,71.0,-100.00,South,191,8.0,19.0,44,-99.99,,,0.00,28.000000,,2013-07-09 04:53:00,
2013-07-08 22:02:00,96.0,71.0,-100.00,South,191,8.0,19.0,44,-99.99,,,0.00,28.000000,,2013-07-09 05:02:00,
2013-07-08 22:42:00,92.0,69.0,-100.00,South,191,5.0,20.0,47,0.00,,,0.00,0.000000,,2013-07-09 05:42:00,
2013-07-08 22:52:00,92.0,69.0,-100.00,South,191,5.0,20.0,47,0.00,,,0.00,0.000000,,2013-07-09 05:52:00,
2013-07-08 23:01:00,92.0,69.0,-100.00,South,191,5.0,20.0,47,0.00,,,0.00,0.000000,,2013-07-09 06:01:00,
2013-07-08 23:43:00,89.0,66.0,-100.00,SSE,164,5.0,14.0,47,0.00,,,0.00,0.000000,,2013-07-09 06:43:00,
2013-07-08 23:53:00,89.0,66.0,-100.00,SSE,164,5.0,14.0,47,0.00,,,0.00,0.000000,,2013-07-09 06:53:00,